Total_Precipitation_Accumulation
1.28 1.34 1.31 1.39 1.49 1.74 1.93 1.88 1.68 1.64 1.63 1.62 1.60 1.66 1.81 1.93 2.04 2.17 2.24 2.23 2.24 2.38 2.32 2.29 2.40 2.49 2.73 2.69 2.74 2.73 2.64 2.57 2.52 2.27 1.90 1.89 2.18 2.29 2.14 1.90 1.73 1.77 1.63
1.09 1.16 1.23 1.25 1.35 1.46 1.58 1.60 1.52 1.40 1.34 1.39 1.44 1.44 1.53 1.72 1.87 1.89 1.93 1.92 1.95 2.06 2.13 2.08 2.15 2.23 2.34 2.55 2.66 2.65 2.67 2.64 2.63 2.55 2.19 2.00 2.01 2.15 2.19 2.11 1.83 1.72 1.66
1.02 1.10 1.20 1.19 1.19 1.19 1.21 1.17 1.19 1.17 1.20 1.22 1.33 1.39 1.46 1.56 1.72 1.74 1.77 1.72 1.70 1.76 1.89 1.96 2.03 2.09 2.12 2.25 2.22 2.31 2.45 2.62 2.72 2.62 2.46 2.24 2.10 2.10 2.16 2.10 2.02 2.05 1.83
1.11 1.19 1.26 1.26 1.27 1.25 1.22 1.18 1.19 1.18 1.21 1.29 1.44 1.50 1.52 1.55 1.55 1.60 1.69 1.69 1.58 1.51 1.56 1.61 1.75 1.88 1.93 2.12 2.08 2.08 2.25 2.50 2.78 2.78 2.64 2.41 2.29 2.25 2.21 2.16 2.21 2.18 2.10
1.01 1.13 1.21 1.29 1.37 1.28 1.15 1.09 1.15 1.14 1.13 1.25 1.38 1.50 1.55 1.54 1.49 1.59 1.67 1.71 1.65 1.47 1.39 1.42 1.48 1.63 1.91 2.02 1.97 2.19 2.35 2.41 2.57 2.71 2.69 2.61 2.47 2.33 2.21 2.10 2.16 2.21 2.25
0.94 1.02 1.21 1.31 1.26 1.20 1.09 1.05 1.05 1.03 1.03 1.11 1.24 1.42 1.53 1.49 1.89 1.89 1.69 1.64 1.61 1.46 1.34 1.31 1.30 1.33 1.55 1.87 2.03 2.17 2.30 2.38 2.42 2.46 2.50 2.42 2.36 2.32 2.42 2.39 2.27 2.20 2.19
0.88 1.01 1.21 1.24 1.15 1.08 1.11 1.12 1.05 1.03 1.06 1.11 1.15 1.16 1.27 1.58 1.66 1.40 1.42 1.41 1.51 1.43 1.30 1.21 1.13 1.13 1.30 1.39 1.55 1.68 1.87 2.16 2.37 2.41 2.32 2.17 2.26 2.25 2.35 2.40 2.30 2.22 2.12
0.78 0.91 1.10 1.12 1.09 1.12 1.11 1.08 1.00 0.94 0.94 0.98 1.00 1.05 1.12 1.27 1.31 1.22 1.30 1.19 1.32 1.32 1.22 1.17 1.16 1.16 1.23 1.29 1.44 1.57 1.54 1.61 1.84 1.90 1.92 1.98 2.05 2.23 2.34 2.38 2.43 2.36 2.31
0.65 0.80 0.90 0.91 0.97 1.00 0.97 0.99 0.94 0.85 0.85 0.87 0.91 0.98 1.06 1.06 1.10 1.11 1.18 1.25 1.38 1.35 1.21 1.19 1.18 1.15 1.38 1.50 1.47 1.52 1.58 1.54 1.65 1.81 2.03 2.04 1.98 2.01 2.13 2.20 2.32 2.37 2.34
0.58 0.71 0.80 0.82 0.83 0.86 0.92 0.94 0.95 0.89 0.84 0.85 0.90 0.91 0.97 1.01 1.16 1.03 1.12 1.26 1.37 1.39 1.35 1.25 1.37 1.35 1.49 1.51 1.44 1.57 1.61 1.43 1.34 1.43 1.59 1.65 1.58 1.61 1.83 1.85 2.08 2.26 2.19
0.47 0.59 0.67 0.70 0.76 0.85 0.95 0.97 1.01 0.98 0.92 0.89 0.92 0.95 0.92 1.01 1.19 1.16 1.18 1.18 1.37 1.41 1.43 1.35 1.23 1.37 1.38 1.45 1.50 1.52 1.71 1.59 1.43 1.46 1.57 1.54 1.43 1.42 1.52 1.61 1.76 2.04 2.13
0.36 0.45 0.59 0.68 0.76 0.84 0.96 1.01 1.00 1.00 1.01 1.02 1.00 1.01 0.98 0.98 1.06 1.12 1.15 1.19 1.30 1.29 1.36 1.34 1.30 1.43 1.32 1.29 1.28 1.41 1.72 1.66 1.47 1.49 1.52 1.51 1.44 1.35 1.40 1.45 1.56 1.67 1.78
0.31 0.36 0.44 0.52 0.57 0.67 0.79 0.91 0.97 0.96 0.96 0.98 1.04 1.12 1.13 1.05 1.13 1.26 1.14 1.11 1.16 1.13 1.14 1.27 1.27 1.27 1.21 1.14 1.19 1.31 1.45 1.56 1.55 1.47 1.38 1.35 1.35 1.35 1.41 1.38 1.41 1.54 1.54
0.32 0.35 0.37 0.40 0.43 0.50 0.66 0.73 0.78 0.84 0.90 0.99 1.05 1.16 1.26 1.22 1.15 1.14 1.09 1.07 1.09 1.01 0.94 0.98 1.01 1.05 1.04 1.03 1.08 1.13 1.24 1.42 1.55 1.45 1.31 1.33 1.38 1.42 1.47 1.39 1.40 1.51 1.53
0.32 0.34 0.36 0.38 0.41 0.46 0.54 0.67 0.76 0.81 0.88 0.96 1.03 1.17 1.25 1.27 1.28 1.39 1.35 1.25 1.20 1.17 1.11 1.01 0.95 0.97 1.05 1.10 1.10 1.09 1.16 1.29 1.39 1.36 1.31 1.31 1.38 1.44 1.45 1.41 1.41 1.45 1.45
0.36 0.35 0.37 0.39 0.44 0.47 0.52 0.62 0.70 0.72 0.75 0.79 0.86 0.93 0.99 1.07 1.13 1.14 1.17 1.16 1.13 1.12 1.18 1.16 1.13 1.16 1.17 1.15 1.16 1.10 1.05 1.10 1.23 1.31 1.31 1.26 1.26 1.34 1.41 1.44 1.44 1.46 1.43
0.45 0.43 0.42 0.42 0.48 0.55 0.57 0.59 0.66 0.68 0.70 0.72 0.75 0.81 0.86 0.92 0.93 0.96 1.02 1.08 1.11 1.10 1.15 1.12 1.06 1.00 1.00 0.98 1.00 1.00 1.00 1.00 1.06 1.18 1.25 1.27 1.26 1.30 1.39 1.44 1.45 1.51 1.49
0.37 0.41 0.45 0.49 0.49 0.54 0.61 0.68 0.75 0.81 0.76 0.69 0.70 0.77 0.79 0.80 0.82 0.85 0.92 0.94 0.90 0.90 0.91 0.97 0.94 0.90 0.86 0.88 0.88 0.86 0.89 0.93 0.96 1.02 1.11 1.17 1.24 1.30 1.37 1.41 1.42 1.42 1.46
0.35 0.41 0.51 0.56 0.54 0.55 0.66 0.78 0.83 0.85 0.83 0.75 0.67 0.68 0.72 0.69 0.72 0.78 0.82 0.80 0.79 0.72 0.71 0.78 0.84 0.85 0.80 0.76 0.75 0.74 0.76 0.80 0.84 0.91 0.98 1.02 1.09 1.15 1.22 1.29 1.34 1.42 1.44
0.37 0.46 0.56 0.62 0.58 0.59 0.64 0.67 0.69 0.75 0.76 0.72 0.71 0.74 0.74 0.68 0.65 0.68 0.70 0.70 0.73 0.72 0.72 0.76 0.78 0.80 0.78 0.77 0.76 0.74 0.75 0.77 0.80 0.85 0.94 1.05 1.09 1.10 1.09 1.14 1.24 1.30 1.28
0.47 0.48 0.52 0.58 0.57 0.55 0.56 0.56 0.60 0.65 0.65 0.64 0.65 0.71 0.75 0.70 0.69 0.69 0.69 0.68 0.68 0.72 0.74 0.76 0.76 0.81 0.81 0.78 0.79 0.80 0.79 0.79 0.79 0.84 0.87 0.91 0.96 1.01 1.04 1.09 1.12 1.17 1.22
0.48 0.50 0.49 0.56 0.59 0.55 0.53 0.55 0.60 0.62 0.63 0.61 0.60 0.61 0.66 0.61 0.62 0.65 0.67 0.71 0.72 0.74 0.76 0.75 0.77 0.80 0.85 0.85 0.82 0.85 0.86 0.85 0.83 0.85 0.89 0.90 0.93 0.96 0.99 1.01 1.04 1.08 1.13
0.50 0.50 0.51 0.55 0.57 0.57 0.56 0.57 0.62 0.65 0.64 0.61 0.61 0.62 0.62 0.60 0.59 0.61 0.66 0.73 0.79 0.79 0.77 0.75 0.78 0.84 0.86 0.86 0.83 0.84 0.85 0.83 0.83 0.86 0.93 0.96 0.97 0.99 1.03 1.06 1.06 1.11 1.16
0.52 0.54 0.57 0.60 0.60 0.64 0.68 0.68 0.67 0.68 0.69 0.67 0.63 0.62 0.62 0.61 0.62 0.63 0.67 0.75 0.79 0.79 0.78 0.76 0.77 0.82 0.87 0.89 0.88 0.85 0.83 0.84 0.83 0.86 0.94 1.03 1.04 1.01 1.01 1.04 1.08 1.09 1.15
0.51 0.53 0.56 0.61 0.63 0.66 0.71 0.71 0.69 0.69 0.72 0.75 0.76 0.73 0.69 0.65 0.65 0.67 0.69 0.74 0.76 0.75 0.74 0.74 0.78 0.81 0.83 0.82 0.83 0.86 0.99 1.01 0.95 0.93 0.93 1.02 1.07 1.07 1.08 1.10 1.12 1.16 1.20
0.51 0.53 0.59 0.66 0.68 0.69 0.71 0.73 0.72 0.70 0.73 0.76 0.79 0.82 0.81 0.76 0.71 0.69 0.71 0.75 0.76 0.74 0.73 0.72 0.73 0.75 0.78 0.81 0.82 0.90 0.95 0.90 0.91 0.97 0.95 0.98 1.05 1.11 1.15 1.18 1.18 1.25 1.33